Flag for U.S.A. Weather past 2 weeks in Sevierville, Tennessee, U.S.A.

Now
71 °F

Overcast.


Feels Like: 71 °F
Forecast: 64 / 86 °F
Wind: No wind

Location: McGhee Tyson Airport

Current Time: Aug 29, 2015 at 3:36:39 AM

Latest Report: Aug 29, 2015 at 2:53 AM


Visibility: 10 mi

Pressure: 30.10 "Hg

Humidity: 81%

Dew point: 65 °F

Location of SeviervilleLocation

Historic Weather in Sevierville — Graph

°F

Sevierville temperature yesterday

Maximum temperature yesterday: 89 °F (at 1:53 PM)
Minimum temperature yesterday: 63 °F (at 6:53 AM)
Average temperature yesterday: 77 °F

Past Weeks' High & Low Weather Summary

 TemperatureHumidityPressure
High90 °F (Aug 24, 2:53 PM)100% (Aug 23, 3:53 AM)30.20 "Hg (Aug 23, 3:53 AM)
Low60 °F (Aug 25, 5:53 AM)33% (Aug 25, 4:53 PM)29.86 "Hg (Aug 19, 5:53 PM)
Average74 °F75%30.03 "Hg
* Reported Aug 14 1:53 AM — Aug 29 1:53 AM, Sevierville, Weather by CustomWeather, © 2015

Note: Actual official high and low records may vary slightly from our data, if they occured in-between our weather recording intervals... More about our weather records

Advertising

Sevierville weather history for previous 24 hours

 ConditionsComfort  
Time TempWeatherWind HumidityBarometerVisibility
1:53 AM
Sat, Aug 29
73 °FPassing clouds.No wind76%30.11 "Hg10 mi
12:53 AM72 °FPassing clouds.No wind81%30.11 "Hg10 mi
11:53 PM
Fri, Aug 28
75 °FPassing clouds.No wind69%30.12 "Hg10 mi
10:53 PM76 °FPartly cloudy.5 mph62%30.11 "Hg10 mi
9:53 PM78 °FPartly cloudy.5 mph58%30.10 "Hg10 mi
8:53 PM79 °FPartly sunny.5 mph54%30.08 "Hg10 mi
7:53 PM81 °FScattered clouds.5 mph51%30.06 "Hg10 mi
6:53 PM85 °FPassing clouds.7 mph43%30.05 "Hg10 mi
5:53 PM86 °FPassing clouds.6 mph36%30.05 "Hg10 mi
4:53 PM88 °FPassing clouds.6 mph35%30.06 "Hg10 mi
3:53 PM88 °FScattered clouds.6 mph35%30.07 "Hg10 mi
2:53 PM88 °FPassing clouds.6 mph39%30.09 "Hg10 mi
1:53 PM89 °FPassing clouds.5 mph38%30.11 "Hg10 mi
12:53 PM85 °FPassing clouds.5 mph48%30.14 "Hg10 mi
11:53 AM83 °FPassing clouds.5 mph53%30.16 "Hg10 mi
10:53 AM79 °FPassing clouds.No wind56%30.16 "Hg10 mi
9:53 AM72 °FPassing clouds.6 mph71%30.15 "Hg10 mi
8:53 AM67 °FPartly sunny.5 mph87%30.14 "Hg10 mi
7:53 AM63 °FPassing clouds.No wind100%30.12 "Hg10 mi
6:53 AM63 °FPassing clouds.No wind97%30.09 "Hg10 mi
5:53 AM64 °FPassing clouds.3 mph87%30.07 "Hg10 mi
4:53 AM68 °FPassing clouds.5 mph78%30.06 "Hg10 mi
3:53 AM67 °FPassing clouds.5 mph79%30.05 "Hg10 mi
Weather by CustomWeather, © 2015

See weather overviewHow to use our weather pages